Tracking 17694 objects as of 29-May-2016
HD Live streaming from Space Station
objects crossing your sky now

AMC-5 (GE-5)

Track AMC-5 (GE-5) now!
AMC-5 (GE-5) is classified as:


NORAD ID: 25516
Int'l Code: 1998-063B
Perigee: -6,371.0 km
Apogee: -6,371.0 km
Inclination: 4.7 °
Period: 0.0 minutes
Semi major axis: 0 km
RCS: 9.3322 m2 (large)
Launch date: October 28, 1998
Source: SOCIETE EUROPEENNE DES SATELLITES (SES)
Launch site: FRENCH GUIANA (FRGUI)

Broadband internet, business television; 16 Ku-band; CONUS
Your satellite tracking list
Your tracking list is empty





NASA's NSSDC Master Catalog

Two Line Element Set (TLE):
1 25516U 98063B   16149.54034655 -.00000030  00000-0  00000+0 0  9991
2 25516   4.6896  62.8646 0002580 356.3213 286.5846  0.99329887 64378
Source of the keplerian elements: AFSPC

N2YO: 531